COSMOS 627 DEB, 45504

Orbit data source: Space-Track

COSMOS 627 DEB, 45504 is space debris in LEO originally from a launch on Sat, 29 Dec 1973 UTC launched from the Plesetsk Missile And Space Complex (PKMTR). Debris objects in space refer to the collection of defunct objects orbiting the Earth. Examples of debris include non-operational satellites, rocket bodies, and fragments generated from explosions, collisions, or faulty payload assembly.

Loading next visibility...
Identifier
45504, 1973-109C
Orbit
LEO
Country
Flag of CISCIS
Related business
Manufacturer
Unknown
Mission
Spacecraft
Bus & Motor
Unknown
Mass
Unknown
Launch date (UTC)
1973-12-29 (52 years ago)
Launch vehicle
Unknown
Launch site
Plesetsk Missile And Space Complex (PKMTR)
Object type
Payload
Rocket body
Debris
Shape & HBR
Unknown
Radar Cross Section
Small (<0.1 m²)

Expand to show TLE details & history
Last TLE update: 2 days ago

TLE from 2 days ago
0 COSMOS 627 DEB
1 45504U 73109C   25259.45758411  .00000181  00000-0  17586-3 0  9996
2 45504  82.9547 320.4980 0031123  10.1606 350.0172 13.74272902586278
Epoch: 2025-09-16T10:58Z
TLE epoch observation values (Epoch: 2025-09-16T10:58:55.267Z)
Latitude
0.00001°
Longitude
160.12012°
Altitude
964.6 km
Speed
7.381 km/s
True Right ascension
21h 21m 59s
True Declination
0° 00' 00"
Sunlit
Object was in full shadow at epoch
Visualization orbit readout
Latitude
Unknown
Longitude
Unknown
Altitude
Unknown
Speed
Unknown
Apparent Right ascension
Unknown
Apparent Declination
Unknown
Sunlit
N/A
Visualization observer readout
Local Sidereal Time
19:53:40
Azimuth
Unknown
Elevation
Unknown
Doppler factor
Unknown
Orbital elements
Apogee altitude
1,004.325 km
Perigee altitude
958.515 km
Semi-major axis
7,359.557 km
Eccentricity
0.00311
Inclination
82.9547°
RAAN
320.498°
Arg. of periapsis
10.1606°
True anomaly
349.95514°
Mean anomaly
350.0172°
Eccentric anomaly
349.98619°
Mean motion
3.43768 °/min
Orbital period
104.72 mins
BSTAR
0.00017586
Loading maneuver chart data...
Computing Atmospheric mass density...
Loading historical data...
Loading historical data...
Loading historical data...
Loading historical data...
Loading historical data...
Loading historical data...
Loading historical data...
Other satellites on launch #109 in the year 1973 (1973-12-29 UTC)

Documentation

Showing up to 5 results
|